Location: Passau
(48.5830°N, 13.4830°E)
Time: 07:26:54
(UTC+02:00)

Transit 2A - All Passes

Search period start: 26 July 2021 00:00
Search period end: 05 August 2021 00:00
Orbit: 598 x 960 km, 66.7° (Epoch: 25 July)

Date Brightness Start Highest point End Pass type
(mag) Time Alt. Az. Time Alt. Az. Time Alt. Az.
26 Jul - 08:57:42 10° SSW 09:02:04 75° ESE 09:06:44 10° NE daylight
26 Jul - 10:42:16 10° W 10:45:48 22° NW 10:49:32 10° NNE daylight
26 Jul - 14:14:25 10° N 14:16:33 12° NNE 14:18:43 10° NE daylight
26 Jul - 15:56:33 10° NNW 16:01:17 33° NE 16:06:25 10° ESE daylight
26 Jul - 17:39:29 10° NW 17:44:45 57° WSW 17:50:31 10° SSE daylight
27 Jul - 08:23:43 10° SSW 08:27:56 50° ESE 08:32:26 10° NE daylight
27 Jul - 10:07:29 10° W 10:11:21 28° NW 10:15:29 10° NNE daylight
27 Jul - 11:55:02 10° NNW 11:56:16 11° NNW 11:57:33 10° N daylight
27 Jul - 13:40:31 10° N 13:41:54 11° NNE 13:43:19 10° NNE daylight
27 Jul - 15:22:30 10° NNW 15:26:53 26° NE 15:31:37 10° E daylight
27 Jul - 17:05:13 10° NW 17:10:35 78° WSW 17:16:29 10° SSE daylight
27 Jul - 18:50:09 10° WNW 18:53:06 15° WSW 18:56:11 10° SW daylight
28 Jul - 07:49:56 10° S 07:53:52 34° ESE 07:58:02 10° NE daylight
28 Jul - 09:32:51 10° WSW 09:36:58 36° NW 09:41:25 10° NNE daylight
28 Jul - 11:19:40 10° NW 11:21:39 12° NNW 11:23:41 10° N daylight
28 Jul - 13:06:55 10° N 13:07:14 10° N 13:07:32 10° NNE daylight
28 Jul - 14:48:27 10° NNW 14:52:26 21° NE 14:56:42 10° E daylight
28 Jul - 16:31:02 10° NNW 16:36:23 79° NE 16:42:17 10° SE daylight
28 Jul - 18:15:07 10° WNW 18:19:08 21° WSW 18:23:23 10° SSW daylight
29 Jul - 07:16:24 10° SSE 07:19:52 23° ESE 07:23:29 10° ENE daylight
29 Jul - 08:58:20 10° SW 09:02:39 50° NW 09:07:18 10° NNE daylight
29 Jul - 10:44:29 10° WNW 10:47:03 14° NNW 10:49:44 10° N daylight
29 Jul - 14:14:25 10° NNW 14:17:56 18° NNE 14:21:39 10° ENE daylight
29 Jul - 15:56:52 10° NNW 16:02:08 59° NE 16:07:56 10° SE daylight
29 Jul - 17:40:27 10° NW 17:45:06 29° WSW 17:50:06 10° S daylight
30 Jul - 06:43:15 10° SE 06:45:54 16° ESE 06:48:39 10° ENE daylight
30 Jul - 08:23:59 10° SW 08:28:22 71° NW 08:33:08 10° NNE daylight
30 Jul - 10:09:25 10° WNW 10:12:29 17° NNW 10:15:44 10° NNE daylight
30 Jul - 13:40:25 10° N 13:43:22 15° NNE 13:46:29 10° ENE daylight
30 Jul - 15:22:44 10° NNW 15:27:50 45° NE 15:33:25 10° ESE daylight
30 Jul - 17:05:59 10° NW 17:11:02 39° WSW 17:16:31 10° S daylight
31 Jul - 06:11:25 10° ESE 06:12:01 10° ESE 06:12:36 10° E daylight
31 Jul - 07:49:47 10° SSW 07:54:11 81° ESE 07:58:55 10° NE daylight
31 Jul - 09:34:29 10° W 09:37:59 21° NNW 09:41:43 10° NNE daylight
31 Jul - 13:06:25 10° N 13:08:47 13° NNE 13:11:14 10° NE daylight
31 Jul - 14:48:39 10° NNW 14:53:30 35° NE 14:58:46 10° ESE daylight
31 Jul - 16:31:37 10° NW 16:36:55 54° WSW 16:42:43 10° SSE daylight
01 Aug - 07:15:46 10° SSW 07:20:02 55° ESE 07:24:39 10° NE daylight
01 Aug - 08:59:41 10° W 09:03:32 27° NW 09:07:39 10° NNE daylight
01 Aug - 10:47:14 10° NNW 10:48:31 11° NNW 10:49:48 10° N daylight
01 Aug - 12:32:26 10° N 12:34:08 11° NNE 12:35:54 10° NE daylight
01 Aug - 14:14:34 10° NNW 14:19:06 28° NE 14:24:00 10° E daylight
01 Aug - 15:57:21 10° NW 16:02:46 74° WSW 16:08:43 10° SSE daylight
01 Aug - 17:42:29 10° WNW 17:45:14 14° WSW 17:48:06 10° SW daylight
02 Aug - 06:41:56 10° S 06:45:58 37° ESE 06:50:16 10° NE daylight
02 Aug - 08:25:01 10° WSW 08:29:07 35° NW 08:33:34 10° NNE daylight
02 Aug - 10:11:55 10° NW 10:13:52 12° NNW 10:15:54 10° N daylight
02 Aug - 11:58:31 10° N 11:59:29 10° N 12:00:28 10° NNE daylight
02 Aug - 13:40:31 10° NNW 13:44:39 23° NE 13:49:05 10° E daylight
02 Aug - 15:23:08 10° NW 15:28:33 83° NE 15:34:32 10° SE daylight
02 Aug - 17:07:21 10° WNW 17:11:17 20° WSW 17:15:25 10° SSW daylight
03 Aug - 06:08:20 10° SSE 06:11:57 25° ESE 06:15:45 10° NE daylight
03 Aug - 07:50:29 10° WSW 07:54:47 47° NW 07:59:28 10° NNE daylight
03 Aug - 09:36:43 10° NW 09:39:15 14° NNW 09:41:56 10° N daylight
03 Aug - 13:06:28 10° NNW 13:10:10 19° NNE 13:14:04 10° ENE daylight
03 Aug - 14:48:58 10° NNW 14:54:19 63° NE 15:00:12 10° SE daylight
03 Aug - 16:32:39 10° NW 16:37:16 27° WSW 16:42:12 10° SSW daylight
04 Aug - 05:35:06 10° SSE 05:37:59 17° ESE 05:40:59 10° ENE daylight
04 Aug - 07:16:06 10° SW 07:20:31 66° NW 07:25:19 10° NNE daylight
04 Aug - 09:01:38 10° WNW 09:04:42 17° NNW 09:07:55 10° NNE daylight
04 Aug - 12:32:27 10° NNW 12:35:37 16° NNE 12:38:56 10° ENE daylight
04 Aug - 14:14:50 10° NNW 14:20:02 48° NE 14:25:44 10° ESE daylight
04 Aug - 15:58:09 10° NW 16:03:12 37° WSW 16:08:39 10° S daylight
